TimePDT,TemperatureF,Dew PointF,Humidity,Sea Level PressureIn,VisibilityMPH,Wind Direction,Wind SpeedMPH,Gust SpeedMPH,PrecipitationIn,Events,Conditions,WindDirDegrees,DateUTC
12:15 AM,46.4,39.2,76,30.40,10.0,Calm,Calm,-,N/A,,Clear,0,2013-05-12 07:15:00
12:35 AM,44.6,39.2,81,30.41,10.0,Calm,Calm,-,N/A,,Clear,0,2013-05-12 07:35:00
12:55 AM,44.6,39.2,81,30.40,10.0,SW,3.5,-,N/A,,Clear,220,2013-05-12 07:55:00
1:15 AM,41.0,39.2,93,30.40,10.0,Calm,Calm,-,N/A,,Clear,0,2013-05-12 08:15:00
1:35 AM,42.8,39.2,87,30.41,10.0,East,3.5,-,N/A,,Clear,100,2013-05-12 08:35:00
1:55 AM,41.0,37.4,87,30.40,10.0,SSE,3.5,-,N/A,,Clear,160,2013-05-12 08:55:00
2:15 AM,41.0,37.4,87,30.40,10.0,Calm,Calm,-,N/A,,Clear,0,2013-05-12 09:15:00
2:35 AM,42.8,39.2,87,30.40,10.0,Calm,Calm,-,N/A,,Clear,0,2013-05-12 09:35:00
2:55 AM,39.2,37.4,93,30.40,10.0,Calm,Calm,-,N/A,,Clear,0,2013-05-12 09:55:00
3:15 AM,39.2,37.4,93,30.40,10.0,Calm,Calm,-,N/A,,Clear,0,2013-05-12 10:15:00
3:35 AM,41.0,37.4,87,30.40,10.0,Calm,Calm,-,N/A,,Clear,0,2013-05-12 10:35:00
3:55 AM,39.2,37.4,93,30.40,10.0,Calm,Calm,-,N/A,,Clear,0,2013-05-12 10:55:00
4:15 AM,37.4,35.6,93,30.40,10.0,Calm,Calm,-,N/A,,Clear,0,2013-05-12 11:15:00
4:35 AM,37.4,35.6,93,30.40,10.0,Calm,Calm,-,N/A,,Clear,0,2013-05-12 11:35:00
4:55 AM,37.4,35.6,93,30.40,10.0,Calm,Calm,-,N/A,,Clear,0,2013-05-12 11:55:00
5:15 AM,37.4,35.6,93,30.40,10.0,Calm,Calm,-,N/A,,Clear,0,2013-05-12 12:15:00
5:35 AM,37.4,37.4,100,30.40,10.0,Calm,Calm,-,N/A,,Clear,0,2013-05-12 12:35:00
5:55 AM,37.4,35.6,93,30.40,10.0,East,3.5,-,N/A,,Clear,90,2013-05-12 12:55:00
6:15 AM,35.6,35.6,100,30.41,0.8,Calm,Calm,-,N/A,,Mist,0,2013-05-12 13:15:00
6:35 AM,35.6,35.6,100,30.41,9.0,Calm,Calm,-,N/A,,Clear,0,2013-05-12 13:35:00
6:55 AM,39.2,37.4,93,30.41,10.0,Calm,Calm,-,N/A,,Scattered Clouds,0,2013-05-12 13:55:00
7:50 AM,44.6,39.2,81,30.42,10.0,Calm,Calm,-,N/A,,Scattered Clouds,0,2013-05-12 14:50:00
8:50 AM,51.8,39.2,62,30.41,10.0,Calm,Calm,-,N/A,,Scattered Clouds,0,2013-05-12 15:50:00
9:55 AM,62.6,42.8,48,30.39,10.0,Calm,Calm,-,N/A,,Scattered Clouds,0,2013-05-12 16:55:00
10:50 AM,71.6,32.0,23,30.39,10.0,South,10.4,-,N/A,,Scattered Clouds,170,2013-05-12 17:50:00
11:50 AM,73.4,30.2,20,30.39,10.0,SSW,10.4,17.3,N/A,,Scattered Clouds,200,2013-05-12 18:50:00
12:50 PM,73.4,32.0,22,30.37,10.0,SSW,10.4,18.4,N/A,,Scattered Clouds,200,2013-05-12 19:50:00
1:55 PM,73.4,32.0,22,30.36,10.0,West,10.4,23.0,N/A,,Scattered Clouds,270,2013-05-12 20:55:00
2:45 PM,73.4,33.8,23,30.35,10.0,West,17.3,24.2,N/A,,Scattered Clouds,270,2013-05-12 21:45:00
3:55 PM,73.4,33.8,23,30.34,10.0,WSW,10.4,21.9,N/A,,Scattered Clouds,240,2013-05-12 22:55:00
4:50 PM,73.4,35.6,25,30.33,10.0,SW,12.7,21.9,N/A,,Scattered Clouds,220,2013-05-12 23:50:00
5:45 PM,71.6,33.8,25,30.32,10.0,SW,12.7,18.4,N/A,,Mostly Cloudy,220,2013-05-13 00:45:00
5:55 PM,71.6,33.8,25,30.32,10.0,SW,11.5,-,N/A,,Clear,220,2013-05-13 00:55:00
6:15 PM,69.8,32.0,25,30.32,10.0,WSW,10.4,18.4,N/A,,Clear,240,2013-05-13 01:15:00
6:35 PM,68.0,32.0,26,30.32,10.0,WSW,8.1,-,N/A,,Clear,250,2013-05-13 01:35:00
6:55 PM,68.0,32.0,26,30.31,10.0,WSW,12.7,18.4,N/A,,Clear,240,2013-05-13 01:55:00
7:15 PM,66.2,32.0,28,30.31,10.0,WSW,9.2,-,N/A,,Clear,240,2013-05-13 02:15:00
7:35 PM,64.4,33.8,32,30.31,10.0,SW,6.9,-,N/A,,Clear,230,2013-05-13 02:35:00
7:55 PM,62.6,32.0,32,30.31,10.0,SW,3.5,-,N/A,,Clear,220,2013-05-13 02:55:00
8:15 PM,60.8,32.0,34,30.31,10.0,ESE,8.1,-,N/A,,Clear,120,2013-05-13 03:15:00
8:35 PM,62.6,32.0,32,30.32,10.0,SSW,3.5,-,N/A,,Clear,210,2013-05-13 03:35:00
8:55 PM,55.4,35.6,47,30.32,10.0,ESE,6.9,-,N/A,,Clear,120,2013-05-13 03:55:00
9:15 PM,53.6,35.6,51,30.33,10.0,SE,8.1,-,N/A,,Clear,130,2013-05-13 04:15:00
9:35 PM,51.8,35.6,54,30.33,10.0,SSE,3.5,-,N/A,,Clear,150,2013-05-13 04:35:00
9:55 PM,50.0,35.6,58,30.33,10.0,SSE,4.6,-,N/A,,Clear,150,2013-05-13 04:55:00
10:15 PM,48.2,35.6,62,30.33,10.0,SSE,4.6,-,N/A,,Clear,150,2013-05-13 05:15:00
10:35 PM,48.2,35.6,62,30.33,10.0,Calm,Calm,-,N/A,,Clear,0,2013-05-13 05:35:00
10:55 PM,50.0,35.6,58,30.33,10.0,Calm,Calm,-,N/A,,Clear,0,2013-05-13 05:55:00
11:15 PM,48.2,35.6,62,30.33,10.0,Calm,Calm,-,N/A,,Clear,0,2013-05-13 06:15:00
11:35 PM,46.4,35.6,66,30.32,10.0,Calm,Calm,-,N/A,,Clear,0,2013-05-13 06:35:00
11:55 PM,46.4,35.6,66,30.33,10.0,Calm,Calm,-,N/A,,Clear,0,2013-05-13 06:55:00